| time (UTC) | temp F | wind direction | speed MPH | gust MPH | rain 1hr in | rain 24hr in | rain mn in | humidity % | barometer mb |
| 20260506204531 | 64 | 104 | 3.0 | 3.0 | 0.00 | 0.01 | 0.01 | 35 | 1017.3 |
| 20260506204028 | 63 | 305 | 0.0 | 0.0 | 0.00 | 0.01 | 0.01 | 33 | 1017.6 |
| 20260506203526 | 64 | 302 | 3.0 | 5.0 | 0.00 | 0.01 | 0.01 | 36 | 1017.6 |
| 20260506203022 | 63 | 330 | 3.0 | 3.0 | 0.00 | 0.01 | 0.01 | 35 | 1017.6 |
| 20260506202520 | 64 | 30 | 4.0 | 5.0 | 0.00 | 0.01 | 0.01 | 35 | 1018.1 |
| 20260506202016 | 63 | 10 | 1.0 | 1.0 | 0.00 | 0.01 | 0.01 | 36 | 1018.1 |
| 20260506201514 | 63 | 323 | 2.0 | 1.0 | 0.00 | 0.01 | 0.01 | 36 | 1018.1 |
| 20260506201010 | 63 | 358 | 5.0 | 7.0 | 0.00 | 0.01 | 0.01 | 36 | 1018.4 |
| 20260506200507 | 62 | 120 | 3.0 | 6.0 | 0.00 | 0.01 | 0.01 | 37 | 1018.4 |
| 20260506200003 | 62 | 354 | 5.0 | 7.0 | 0.00 | 0.01 | 0.01 | 37 | 1018.1 |
| 20260506195500 | 62 | 348 | 4.0 | 6.0 | 0.00 | 0.01 | 0.01 | 40 | 1018.4 |
| 20260506194955 | 62 | 344 | 1.0 | 2.0 | 0.00 | 0.01 | 0.01 | 38 | 1018.4 |
| 20260506194453 | 63 | 352 | 1.0 | 1.0 | 0.00 | 0.01 | 0.01 | 41 | 1018.8 |
| 20260506193945 | 63 | 341 | 3.0 | 2.0 | 0.00 | 0.01 | 0.01 | 38 | 1018.4 |
| 20260506193442 | 63 | 359 | 6.0 | 7.0 | 0.00 | 0.01 | 0.01 | 38 | 1018.4 |
| 20260506192939 | 63 | 332 | 2.0 | 2.0 | 0.00 | 0.01 | 0.01 | 38 | 1018.4 |
| 20260506192436 | 62 | 98 | 6.0 | 8.0 | 0.00 | 0.01 | 0.01 | 37 | 1018.8 |
| 20260506191932 | 62 | 331 | 4.0 | 6.0 | 0.00 | 0.01 | 0.01 | 37 | 1019.1 |
| 20260506191429 | 61 | 11 | 2.0 | 3.0 | 0.00 | 0.01 | 0.01 | 40 | 1019.1 |
| 20260506190925 | 62 | 337 | 5.0 | 5.0 | 0.00 | 0.01 | 0.01 | 39 | 1018.8 |
| 20260506190421 | 62 | 321 | 5.0 | 6.0 | 0.00 | 0.01 | 0.01 | 38 | 1018.8 |
| 20260506185913 | 62 | 342 | 6.0 | 7.0 | 0.00 | 0.01 | 0.01 | 39 | 1019.1 |
| 20260506185410 | 61 | 40 | 2.0 | 2.0 | 0.00 | 0.01 | 0.01 | 39 | 1018.8 |
| 20260506184908 | 62 | 23 | 3.0 | 2.0 | 0.00 | 0.01 | 0.01 | 36 | 1019.1 |
| 20260506184404 | 62 | 26 | 4.0 | 5.0 | 0.00 | 0.01 | 0.01 | 36 | 1019.1 |
| 20260506183902 | 62 | 337 | 3.0 | 3.0 | 0.00 | 0.01 | 0.01 | 41 | 1019.1 |
| 20260506183357 | 62 | 273 | 3.0 | 3.0 | 0.00 | 0.01 | 0.01 | 39 | 1019.1 |
| 20260506182854 | 60 | 354 | 1.0 | 1.0 | 0.00 | 0.01 | 0.01 | 42 | 1019.4 |
| 20260506182351 | 61 | 335 | 5.0 | 6.0 | 0.00 | 0.01 | 0.01 | 37 | 1019.1 |
| 20260506181848 | 61 | 11 | 3.0 | 5.0 | 0.00 | 0.01 | 0.01 | 36 | 1019.4 |
| 20260506181346 | 61 | 30 | 4.0 | 5.0 | 0.00 | 0.01 | 0.01 | 36 | 1019.4 |
| 20260506180843 | 61 | 334 | 3.0 | 3.0 | 0.00 | 0.01 | 0.01 | 39 | 1019.4 |
| 20260506180339 | 61 | 329 | 4.0 | 5.0 | 0.00 | 0.01 | 0.01 | 39 | 1019.8 |
| 20260506175836 | 60 | 335 | 3.0 | 3.0 | 0.00 | 0.01 | 0.01 | 38 | 1019.8 |
| 20260506175333 | 59 | 309 | 4.0 | 3.0 | 0.00 | 0.01 | 0.01 | 41 | 1019.8 |
| 20260506174830 | 59 | 346 | 2.0 | 2.0 | 0.00 | 0.01 | 0.01 | 43 | 1019.4 |
| 20260506174327 | 59 | 11 | 3.0 | 5.0 | 0.00 | 0.01 | 0.01 | 44 | 1019.1 |
| 20260506173825 | 59 | 359 | 5.0 | 6.0 | 0.00 | 0.01 | 0.01 | 42 | 1019.4 |
| 20260506173321 | 59 | 335 | 1.0 | 1.0 | 0.00 | 0.01 | 0.01 | 45 | 1019.4 |
| 20260506172819 | 59 | 356 | 5.0 | 6.0 | 0.00 | 0.01 | 0.01 | 43 | 1019.1 |
| 20260506172315 | 58 | 340 | 4.0 | 7.0 | 0.00 | 0.01 | 0.01 | 44 | 1019.4 |
| 20260506171812 | 59 | 353 | 4.0 | 5.0 | 0.00 | 0.01 | 0.01 | 41 | 1019.1 |
| 20260506171309 | 59 | 334 | 3.0 | 5.0 | 0.00 | 0.01 | 0.01 | 46 | 1019.1 |
| 20260506170807 | 58 | 4 | 6.0 | 8.0 | 0.00 | 0.01 | 0.01 | 44 | 1019.4 |
| 20260506170303 | 59 | 55 | 7.0 | 8.0 | 0.00 | 0.01 | 0.01 | 43 | 1019.4 |
| 20260506165802 | 58 | 315 | 1.0 | 1.0 | 0.00 | 0.01 | 0.01 | 43 | 1019.1 |
| 20260506165259 | 58 | 78 | 3.0 | 6.0 | 0.00 | 0.01 | 0.01 | 48 | 1019.1 |
| 20260506164756 | 57 | 57 | 1.0 | 1.0 | 0.00 | 0.01 | 0.01 | 50 | 1019.4 |
| 20260506164252 | 57 | 138 | 4.0 | 5.0 | 0.00 | 0.01 | 0.01 | 51 | 1019.4 |
| 20260506163749 | 57 | 347 | 3.0 | 5.0 | 0.00 | 0.01 | 0.01 | 51 | 1019.4 |
| 20260506163244 | 56 | 310 | 2.0 | 2.0 | 0.00 | 0.01 | 0.01 | 51 | 1019.4 |
| 20260506162740 | 57 | 329 | 3.0 | 3.0 | 0.00 | 0.01 | 0.01 | 52 | 1019.4 |
| 20260506162238 | 56 | 56 | 3.0 | 3.0 | 0.00 | 0.01 | 0.01 | 53 | 1019.1 |
| 20260506161735 | 56 | 52 | 3.0 | 3.0 | 0.00 | 0.01 | 0.01 | 53 | 1019.4 |
| 20260506161232 | 56 | 358 | 3.0 | 3.0 | 0.00 | 0.01 | 0.01 | 53 | 1019.1 |
| 20260506160730 | 56 | 71 | 4.0 | 6.0 | 0.00 | 0.01 | 0.01 | 53 | 1019.1 |
| 20260506160226 | 55 | 358 | 2.0 | 2.0 | 0.00 | 0.01 | 0.01 | 55 | 1018.8 |
| 20260506155725 | 55 | 9 | 1.0 | 2.0 | 0.00 | 0.01 | 0.01 | 55 | 1019.1 |
| 20260506155222 | 55 | 350 | 4.0 | 5.0 | 0.00 | 0.01 | 0.01 | 54 | 1019.1 |
| 20260506153329 | 53 | 341 | 0.0 | 0.0 | 0.00 | 0.01 | 0.01 | 66 | 1018.8 |
| 20260506152826 | 53 | 359 | 3.0 | 2.0 | 0.00 | 0.01 | 0.01 | 62 | 1018.8 |
| 20260506152323 | 53 | 42 | 2.0 | 2.0 | 0.00 | 0.01 | 0.01 | 62 | 1018.8 |
| 20260506151822 | 53 | 9 | 1.0 | 1.0 | 0.00 | 0.01 | 0.01 | 62 | 1018.8 |
| 20260506151318 | 53 | 352 | 3.0 | 3.0 | 0.00 | 0.01 | 0.01 | 68 | 1018.8 |
| 20260506150815 | 52 | 348 | 1.0 | 1.0 | 0.00 | 0.01 | 0.01 | 70 | 1018.8 |
| 20260506150312 | 52 | 346 | 4.0 | 5.0 | 0.00 | 0.01 | 0.01 | 69 | 1018.8 |
| 20260506145809 | 52 | 323 | 1.0 | 1.0 | 0.00 | 0.01 | 0.01 | 71 | 1018.8 |
| 20260506145306 | 52 | 355 | 0.0 | 0.0 | 0.00 | 0.01 | 0.01 | 70 | 1018.4 |
| 20260506144803 | 52 | 356 | 1.0 | 1.0 | 0.00 | 0.01 | 0.01 | 71 | 1018.8 |
| 20260506144259 | 51 | 10 | 1.0 | 1.0 | 0.00 | 0.01 | 0.01 | 75 | 1018.4 |
| 20260506143758 | 51 | 318 | 3.0 | 2.0 | 0.00 | 0.01 | 0.01 | 72 | 1018.4 |
| 20260506143254 | 51 | 306 | 1.0 | 1.0 | 0.00 | 0.01 | 0.01 | 71 | 1018.8 |
| 20260506142753 | 52 | 337 | 1.0 | 1.0 | 0.00 | 0.01 | 0.01 | 69 | 1018.4 |
| 20260506142250 | 52 | 17 | 0.0 | 0.0 | 0.00 | 0.01 | 0.01 | 71 | 1018.4 |
| 20260506141749 | 52 | 130 | 2.0 | 2.0 | 0.00 | 0.01 | 0.01 | 71 | 1018.1 |
| 20260506141246 | 51 | 354 | 0.0 | 0.0 | 0.00 | 0.01 | 0.01 | 74 | 1018.1 |
| 20260506140744 | 50 | 357 | 0.0 | 0.0 | 0.00 | 0.01 | 0.01 | 77 | 1018.4 |
| 20260506140241 | 50 | 323 | 1.0 | 1.0 | 0.00 | 0.01 | 0.01 | 79 | 1018.1 |
| 20260506135738 | 50 | 355 | 0.0 | 0.0 | 0.00 | 0.01 | 0.01 | 81 | 1018.1 |
| 20260506135234 | 49 | 355 | 0.0 | 1.0 | 0.00 | 0.01 | 0.01 | 82 | 1018.1 |
| 20260506134731 | 49 | 18 | 2.0 | 2.0 | 0.00 | 0.01 | 0.01 | 82 | 1018.4 |
| 20260506134227 | 48 | 335 | 1.0 | 1.0 | 0.00 | 0.01 | 0.01 | 83 | 1018.4 |
| 20260506133724 | 48 | 332 | 0.0 | 0.0 | 0.00 | 0.01 | 0.01 | 84 | 1018.4 |
| 20260506133221 | 48 | 310 | 0.0 | 0.0 | 0.00 | 0.01 | 0.01 | 86 | 1018.4 |
| 20260506132718 | 47 | 310 | 0.0 | 0.0 | 0.00 | 0.01 | 0.01 | 86 | 1018.4 |
| 20260506132215 | 47 | 310 | 0.0 | 0.0 | 0.00 | 0.01 | 0.01 | 86 | 1018.4 |
| 20260506131713 | 47 | 310 | 0.0 | 0.0 | 0.00 | 0.01 | 0.01 | 89 | 1018.4 |
| 20260506131209 | 47 | 310 | 0.0 | 0.0 | 0.00 | 0.01 | 0.01 | 90 | 1018.4 |
| 20260506130705 | 47 | 317 | 0.0 | 0.0 | 0.00 | 0.01 | 0.01 | 91 | 1018.4 |
| 20260506130203 | 46 | 319 | 0.0 | 0.0 | 0.00 | 0.01 | 0.01 | 90 | 1018.4 |
| 20260506125701 | 47 | 334 | 0.0 | 0.0 | 0.00 | 0.01 | 0.01 | 91 | 1018.8 |
| 20260506125158 | 47 | 334 | 0.0 | 0.0 | 0.00 | 0.01 | 0.01 | 92 | 1018.4 |
| 20260506124656 | 46 | 335 | 0.0 | 0.0 | 0.00 | 0.01 | 0.01 | 92 | 1018.4 |
| 20260506124154 | 46 | 335 | 0.0 | 0.0 | 0.00 | 0.01 | 0.01 | 93 | 1018.8 |
| 20260506123651 | 46 | 335 | 0.0 | 0.0 | 0.00 | 0.01 | 0.01 | 94 | 1018.8 |
| 20260506123150 | 46 | 335 | 0.0 | 0.0 | 0.00 | 0.01 | 0.01 | 94 | 1018.4 |
| 20260506122646 | 46 | 335 | 0.0 | 0.0 | 0.00 | 0.01 | 0.01 | 94 | 1018.4 |
| 20260506122144 | 46 | 351 | 0.0 | 0.0 | 0.00 | 0.01 | 0.01 | 94 | 1018.4 |
| 20260506121641 | 46 | 357 | 1.0 | 1.0 | 0.00 | 0.01 | 0.01 | 94 | 1018.4 |
| 20260506121137 | 46 | 351 | 0.0 | 0.0 | 0.00 | 0.01 | 0.01 | 94 | 1018.8 |
| 20260506120636 | 46 | 351 | 0.0 | 0.0 | 0.00 | 0.01 | 0.01 | 95 | 1018.4 |
| 20260506120132 | 46 | 351 | 0.0 | 0.0 | 0.00 | 0.01 | 0.01 | 95 | 1018.4 |
| 20260506115631 | 46 | 351 | 0.0 | 0.0 | 0.00 | 0.01 | 0.01 | 95 | 1018.4 |
| 20260506115129 | 46 | 357 | 1.0 | 1.0 | 0.00 | 0.01 | 0.01 | 95 | 1018.4 |
| 20260506114626 | 46 | 351 | 1.0 | 1.0 | 0.00 | 0.01 | 0.01 | 96 | 1018.1 |
| 20260506114124 | 46 | 323 | 0.0 | 0.0 | 0.00 | 0.01 | 0.01 | 95 | 1017.6 |
| 20260506113622 | 46 | 322 | 0.0 | 0.0 | 0.00 | 0.01 | 0.01 | 95 | 1017.3 |
| 20260506113119 | 46 | 320 | 0.0 | 0.0 | 0.00 | 0.01 | 0.01 | 95 | 1017.3 |
| 20260506112615 | 46 | 319 | 0.0 | 0.0 | 0.00 | 0.01 | 0.01 | 95 | 1017.3 |
| 20260506112113 | 46 | 338 | 0.0 | 0.0 | 0.00 | 0.01 | 0.01 | 95 | 1017.0 |
| 20260506111610 | 46 | 338 | 0.0 | 0.0 | 0.00 | 0.01 | 0.01 | 95 | 1017.3 |
| 20260506111108 | 46 | 336 | 0.0 | 0.0 | 0.00 | 0.01 | 0.01 | 95 | 1017.0 |
| 20260506110605 | 46 | 336 | 0.0 | 0.0 | 0.00 | 0.01 | 0.01 | 95 | 1017.3 |
| 20260506105558 | 46 | 348 | 0.0 | 0.0 | 0.00 | 0.01 | 0.01 | 95 | 1017.0 |
| 20260506105055 | 46 | 348 | 0.0 | 0.0 | 0.00 | 0.01 | 0.01 | 96 | 1017.0 |
| 20260506104554 | 46 | 336 | 4.0 | 5.0 | 0.00 | 0.01 | 0.01 | 96 | 1017.0 |
| 20260506104051 | 46 | 336 | 0.0 | 1.0 | 0.00 | 0.01 | 0.01 | 96 | 1016.6 |
| 20260506103548 | 46 | 339 | 3.0 | 3.0 | 0.00 | 0.01 | 0.01 | 96 | 1016.6 |
| 20260506103045 | 46 | 353 | 0.0 | 0.0 | 0.00 | 0.01 | 0.01 | 96 | 1016.6 |
| 20260506102543 | 46 | 353 | 0.0 | 0.0 | 0.00 | 0.01 | 0.01 | 96 | 1017.0 |
| 20260506102040 | 46 | 353 | 0.0 | 0.0 | 0.00 | 0.01 | 0.01 | 96 | 1017.0 |
| 20260506101537 | 46 | 353 | 0.0 | 0.0 | 0.00 | 0.01 | 0.01 | 96 | 1016.6 |
| 20260506101034 | 46 | 353 | 0.0 | 0.0 | 0.00 | 0.01 | 0.01 | 96 | 1016.3 |
| 20260506100532 | 46 | 354 | 0.0 | 0.0 | 0.00 | 0.01 | 0.01 | 96 | 1016.6 |
| 20260506100030 | 46 | 354 | 0.0 | 0.0 | 0.00 | 0.01 | 0.01 | 96 | 1017.0 |
| 20260506095529 | 46 | 353 | 0.0 | 0.0 | 0.00 | 0.01 | 0.01 | 96 | 1017.0 |
| 20260506095024 | 46 | 353 | 0.0 | 0.0 | 0.00 | 0.01 | 0.01 | 96 | 1017.0 |
| 20260506094522 | 46 | 353 | 0.0 | 0.0 | 0.00 | 0.01 | 0.01 | 96 | 1016.3 |
| 20260506094020 | 46 | 353 | 0.0 | 0.0 | 0.00 | 0.01 | 0.01 | 97 | 1016.6 |
| 20260506093518 | 45 | 353 | 0.0 | 0.0 | 0.00 | 0.01 | 0.01 | 97 | 1016.3 |
| 20260506093015 | 45 | 353 | 0.0 | 0.0 | 0.00 | 0.01 | 0.01 | 97 | 1016.3 |
| 20260506092513 | 45 | 353 | 1.0 | 1.0 | 0.00 | 0.01 | 0.01 | 96 | 1015.9 |
| 20260506092009 | 45 | 354 | 0.0 | 0.0 | 0.00 | 0.01 | 0.01 | 97 | 1014.2 |
| 20260506091508 | 45 | 352 | 1.0 | 1.0 | 0.00 | 0.01 | 0.01 | 97 | 1014.9 |
| 20260506091004 | 45 | 352 | 0.0 | 0.0 | 0.00 | 0.01 | 0.01 | 97 | 1015.6 |
| 20260506090503 | 45 | 5 | 1.0 | 1.0 | 0.00 | 0.01 | 0.01 | 97 | 1014.9 |
| 20260506085958 | 45 | 351 | 0.0 | 0.0 | 0.00 | 0.01 | 0.01 | 96 | 1015.6 |
| 20260506085455 | 44 | 352 | 0.0 | 0.0 | 0.00 | 0.01 | 0.01 | 96 | 1015.3 |
| 20260506084952 | 44 | 352 | 1.0 | 1.0 | 0.00 | 0.01 | 0.01 | 96 | 1014.9 |
| 20260506084449 | 44 | 352 | 0.0 | 0.0 | 0.00 | 0.01 | 0.01 | 96 | 1014.6 |
| 20260506083945 | 45 | 352 | 0.0 | 0.0 | 0.00 | 0.01 | 0.01 | 96 | 1014.6 |
| 20260506083443 | 45 | 354 | 0.0 | 1.0 | 0.00 | 0.01 | 0.01 | 96 | 1014.9 |
| 20260506082940 | 45 | 351 | 1.0 | 1.0 | 0.00 | 0.01 | 0.01 | 96 | 1014.6 |
| 20260506082437 | 45 | 351 | 0.0 | 0.0 | 0.00 | 0.01 | 0.01 | 96 | 1014.6 |
| 20260506081932 | 45 | 351 | 2.0 | 1.0 | 0.00 | 0.01 | 0.01 | 96 | 1014.9 |
| 20260506081431 | 45 | 351 | 1.0 | 1.0 | 0.00 | 0.01 | 0.01 | 96 | 1014.9 |
| 20260506080928 | 45 | 351 | 0.0 | 0.0 | 0.00 | 0.01 | 0.01 | 96 | 1014.6 |
| 20260506080424 | 45 | 351 | 0.0 | 0.0 | 0.00 | 0.01 | 0.01 | 96 | 1014.9 |
| 20260506073409 | 45 | 352 | 0.0 | 0.0 | 0.00 | 0.01 | 0.01 | 96 | 1015.3 |
| 20260506072906 | 45 | 352 | 0.0 | 0.0 | 0.00 | 0.01 | 0.01 | 96 | 1015.6 |
| 20260506072403 | 45 | 346 | 0.0 | 0.0 | 0.00 | 0.01 | 0.01 | 96 | 1015.6 |
| 20260506071900 | 45 | 345 | 0.0 | 0.0 | 0.00 | 0.01 | 0.01 | 96 | 1015.9 |
| 20260506071358 | 45 | 345 | 0.0 | 0.0 | 0.00 | 0.01 | 0.01 | 96 | 1015.9 |
| 20260506070854 | 45 | 345 | 0.0 | 0.0 | 0.00 | 0.01 | 0.01 | 96 | 1015.9 |
| 20260506070352 | 45 | 346 | 0.0 | 0.0 | 0.00 | 0.01 | 0.01 | 96 | 1015.9 |
| 20260506062329 | 45 | 341 | 0.0 | 0.0 | 0.00 | 0.00 | 0.00 | 96 | 1015.9 |
| 20260506061825 | 45 | 341 | 0.0 | 0.0 | 0.00 | 0.00 | 0.00 | 96 | 1015.6 |
| 20260506061322 | 45 | 341 | 0.0 | 0.0 | 0.00 | 0.00 | 0.00 | 96 | 1015.3 |
| 20260506060820 | 45 | 341 | 0.0 | 0.0 | 0.00 | 0.00 | 0.00 | 96 | 1015.3 |
| 20260506060318 | 45 | 341 | 0.0 | 0.0 | 0.00 | 0.00 | 0.00 | 96 | 1015.3 |
| 20260506051249 | 45 | 341 | 1.0 | 1.0 | 0.00 | 0.00 | 0.00 | 95 | 1014.6 |
| 20260506050747 | 45 | 340 | 1.0 | 1.0 | 0.00 | 0.00 | 0.00 | 95 | 1014.6 |
| 20260506050244 | 45 | 340 | 0.0 | 0.0 | 0.00 | 0.00 | 0.00 | 95 | 1014.6 |
| 20260506044735 | 45 | 340 | 0.0 | 0.0 | 0.00 | 0.25 | 0.25 | 95 | 1014.9 |
| 20260506044232 | 45 | 340 | 0.0 | 0.0 | 0.00 | 0.25 | 0.25 | 95 | 1014.6 |
| 20260506043730 | 45 | 340 | 0.0 | 0.0 | 0.00 | 0.25 | 0.25 | 95 | 1014.6 |
| 20260506043227 | 45 | 340 | 0.0 | 0.0 | 0.00 | 0.25 | 0.25 | 95 | 1014.2 |
| 20260506042726 | 45 | 340 | 0.0 | 0.0 | 0.00 | 0.25 | 0.25 | 95 | 1014.2 |
| 20260506042224 | 45 | 340 | 0.0 | 0.0 | 0.05 | 0.25 | 0.25 | 95 | 1014.6 |
| 20260506041722 | 45 | 341 | 0.0 | 0.0 | 0.05 | 0.25 | 0.25 | 95 | 1014.6 |
| 20260506041219 | 45 | 339 | 0.0 | 0.0 | 0.00 | 0.24 | 0.24 | 94 | 1014.6 |
| 20260506040716 | 45 | 339 | 0.0 | 0.0 | 0.00 | 0.24 | 0.24 | 95 | 1014.9 |
| 20260506040213 | 45 | 339 | 0.0 | 0.0 | 0.00 | 0.24 | 0.24 | 94 | 1014.6 |
| 20260506035710 | 45 | 338 | 0.0 | 0.0 | 0.00 | 0.24 | 0.24 | 94 | 1014.6 |
| 20260506035207 | 45 | 338 | 0.0 | 0.0 | 0.00 | 0.24 | 0.24 | 94 | 1014.6 |
| 20260506034703 | 45 | 339 | 0.0 | 0.0 | 0.00 | 0.24 | 0.24 | 94 | 1014.6 |
| 20260506034201 | 45 | 339 | 0.0 | 0.0 | 0.00 | 0.24 | 0.24 | 94 | 1014.9 |
| 20260506033658 | 45 | 332 | 0.0 | 0.0 | 0.00 | 0.24 | 0.24 | 94 | 1014.6 |
| 20260506033155 | 45 | 331 | 1.0 | 1.0 | 0.00 | 0.24 | 0.24 | 94 | 1014.6 |
| 20260506032652 | 45 | 1 | 0.0 | 1.0 | 0.00 | 0.24 | 0.24 | 94 | 1014.6 |
| 20260506032149 | 45 | 330 | 0.0 | 0.0 | 0.00 | 0.24 | 0.24 | 94 | 1014.6 |
| 20260506031645 | 45 | 330 | 0.0 | 0.0 | 0.00 | 0.24 | 0.24 | 93 | 1014.2 |
| 20260506031142 | 45 | 330 | 2.0 | 2.0 | 0.00 | 0.24 | 0.24 | 93 | 1014.2 |
| 20260506030641 | 45 | 337 | 2.0 | 2.0 | 0.00 | 0.24 | 0.24 | 94 | 1013.8 |
| 20260506030138 | 45 | 336 | 1.0 | 1.0 | 0.00 | 0.24 | 0.24 | 94 | 1013.8 |
| 20260506025635 | 45 | 317 | 1.0 | 1.0 | 0.00 | 0.24 | 0.24 | 94 | 1014.2 |
| 20260506025131 | 45 | 325 | 1.0 | 1.0 | 0.00 | 0.24 | 0.24 | 93 | 1014.2 |
| 20260506024629 | 45 | 327 | 2.0 | 2.0 | 0.00 | 0.24 | 0.24 | 93 | 1013.8 |
| 20260506024124 | 45 | 345 | 2.0 | 2.0 | 0.00 | 0.24 | 0.24 | 93 | 1014.2 |
| 20260506023621 | 45 | 1 | 1.0 | 1.0 | 0.00 | 0.24 | 0.24 | 93 | 1014.6 |
| 20260506023118 | 45 | 340 | 2.0 | 2.0 | 0.00 | 0.24 | 0.24 | 93 | 1014.2 |
| 20260506022616 | 45 | 290 | 0.0 | 0.0 | 0.00 | 0.24 | 0.24 | 93 | 1013.8 |
| 20260506022113 | 45 | 292 | 2.0 | 2.0 | 0.07 | 0.24 | 0.24 | 93 | 1013.8 |
| 20260506021611 | 45 | 344 | 1.0 | 2.0 | 0.07 | 0.24 | 0.24 | 93 | 1013.5 |
| 20260506021108 | 45 | 337 | 1.0 | 1.0 | 0.00 | 0.23 | 0.23 | 93 | 1014.2 |
| 20260506020605 | 45 | 337 | 0.0 | 0.0 | 0.00 | 0.23 | 0.23 | 92 | 1014.2 |
| 20260506015600 | 45 | 338 | 1.0 | 2.0 | 0.05 | 0.23 | 0.23 | 92 | 1013.8 |
| 20260506015056 | 45 | 321 | 1.0 | 1.0 | 0.00 | 0.22 | 0.22 | 90 | 1013.5 |
| 20260506014554 | 46 | 337 | 0.0 | 0.0 | 0.12 | 0.22 | 0.22 | 90 | 1013.1 |
| 20260506014049 | 46 | 328 | 1.0 | 2.0 | 0.19 | 0.22 | 0.22 | 90 | 1013.1 |
| 20260506013548 | 46 | 356 | 1.0 | 1.0 | 0.07 | 0.20 | 0.20 | 91 | 1012.8 |
| 20260506013044 | 46 | 324 | 0.0 | 1.0 | 0.12 | 0.20 | 0.20 | 91 | 1013.1 |
| 20260506012540 | 46 | 337 | 3.0 | 3.0 | 0.05 | 0.19 | 0.19 | 92 | 1012.8 |
| 20260506012037 | 46 | 344 | 2.0 | 2.0 | 0.00 | 0.18 | 0.18 | 93 | 1012.8 |
| 20260506011535 | 46 | 330 | 3.0 | 3.0 | 0.00 | 0.18 | 0.18 | 93 | 1013.1 |
| 20260506011031 | 46 | 341 | 1.0 | 1.0 | 0.00 | 0.18 | 0.18 | 93 | 1012.8 |
| 20260506010530 | 46 | 285 | 1.0 | 2.0 | 0.00 | 0.18 | 0.18 | 93 | 1012.8 |
| 20260506010026 | 46 | 353 | 4.0 | 5.0 | 0.00 | 0.18 | 0.18 | 93 | 1012.5 |
| 20260506005523 | 46 | 338 | 2.0 | 2.0 | 0.00 | 0.18 | 0.18 | 93 | 1012.5 |
| 20260506005019 | 46 | 318 | 1.0 | 1.0 | 0.00 | 0.18 | 0.18 | 93 | 1012.5 |
| 20260506004517 | 46 | 312 | 4.0 | 5.0 | 0.00 | 0.18 | 0.18 | 93 | 1012.5 |
| 20260506004013 | 46 | 336 | 1.0 | 1.0 | 0.00 | 0.18 | 0.18 | 93 | 1012.5 |
| 20260506003510 | 46 | 325 | 1.0 | 1.0 | 0.00 | 0.18 | 0.18 | 93 | 1012.8 |
| 20260506003005 | 46 | 316 | 0.0 | 0.0 | 0.07 | 0.18 | 0.18 | 93 | 1012.5 |
| 20260506002502 | 46 | 319 | 0.0 | 0.0 | 0.07 | 0.18 | 0.18 | 93 | 1012.1 |
| 20260506001957 | 46 | 317 | 1.0 | 1.0 | 0.00 | 0.17 | 0.17 | 92 | 1012.1 |
| 20260506001454 | 46 | 50 | 3.0 | 2.0 | 0.00 | 0.17 | 0.17 | 92 | 1012.1 |
| 20260506000952 | 46 | 338 | 0.0 | 0.0 | 0.07 | 0.17 | 0.17 | 93 | 1012.1 |
| 20260506000449 | 46 | 5 | 2.0 | 2.0 | 0.12 | 0.17 | 0.17 | 92 | 1012.5 |
| 20260505235946 | 46 | 329 | 2.0 | 2.0 | 0.12 | 0.16 | 0.16 | 91 | 1012.1 |
| 20260505235444 | 46 | 334 | 1.0 | 1.0 | 0.07 | 0.15 | 0.15 | 91 | 1012.1 |
| 20260505234940 | 46 | 326 | 4.0 | 6.0 | 0.05 | 0.14 | 0.14 | 92 | 1011.8 |
| 20260505234438 | 46 | 321 | 1.0 | 1.0 | 0.05 | 0.14 | 0.14 | 92 | 1011.8 |
| 20260505233934 | 46 | 318 | 3.0 | 3.0 | 0.00 | 0.13 | 0.13 | 91 | 1011.8 |
| 20260505233432 | 46 | 358 | 1.0 | 2.0 | 0.00 | 0.13 | 0.13 | 91 | 1011.8 |
| 20260505232930 | 46 | 336 | 2.0 | 3.0 | 0.00 | 0.13 | 0.13 | 90 | 1012.1 |
| 20260505232427 | 46 | 26 | 3.0 | 5.0 | 0.00 | 0.13 | 0.13 | 91 | 1012.1 |
| 20260505231924 | 46 | 335 | 1.0 | 2.0 | 0.00 | 0.13 | 0.13 | 91 | 1012.1 |
| 20260505231422 | 46 | 331 | 1.0 | 1.0 | 0.00 | 0.13 | 0.13 | 92 | 1012.1 |
| 20260505230919 | 47 | 326 | 1.0 | 1.0 | 0.00 | 0.13 | 0.13 | 93 | 1012.1 |
| 20260505230417 | 47 | 341 | 2.0 | 2.0 | 0.00 | 0.13 | 0.13 | 93 | 1011.8 |
| 20260505225913 | 47 | 340 | 0.0 | 0.0 | 0.07 | 0.13 | 0.13 | 92 | 1012.1 |
| 20260505225411 | 47 | 342 | 3.0 | 3.0 | 0.07 | 0.13 | 0.13 | 92 | 1012.1 |
| 20260505224912 | 47 | 341 | 2.0 | 2.0 | 0.07 | 0.13 | 0.13 | 92 | 1012.1 |
| 20260505224409 | 47 | 346 | 2.0 | 3.0 | 0.05 | 0.12 | 0.12 | 92 | 1012.1 |
| 20260505223906 | 47 | 344 | 1.0 | 1.0 | 0.05 | 0.12 | 0.12 | 91 | 1012.1 |
| 20260505223403 | 47 | 344 | 3.0 | 3.0 | 0.00 | 0.11 | 0.11 | 91 | 1012.1 |
| 20260505222859 | 47 | 349 | 2.0 | 2.0 | 0.00 | 0.11 | 0.11 | 91 | 1011.8 |
| 20260505222355 | 47 | 14 | 0.0 | 1.0 | 0.00 | 0.11 | 0.11 | 92 | 1011.8 |
| 20260505221852 | 47 | 335 | 2.0 | 2.0 | 0.00 | 0.11 | 0.11 | 93 | 1012.1 |
| 20260505221349 | 47 | 3 | 2.0 | 2.0 | 0.00 | 0.11 | 0.11 | 92 | 1012.1 |
| 20260505220846 | 47 | 342 | 1.0 | 1.0 | 0.00 | 0.11 | 0.11 | 92 | 1012.1 |
| 20260505220343 | 47 | 342 | 1.0 | 1.0 | 0.07 | 0.11 | 0.11 | 92 | 1012.1 |
| 20260505215841 | 47 | 338 | 2.0 | 1.0 | 0.07 | 0.11 | 0.11 | 92 | 1011.8 |
| 20260505215339 | 47 | 333 | 2.0 | 2.0 | 0.00 | 0.10 | 0.10 | 91 | 1011.8 |
| 20260505214837 | 48 | 5 | 2.0 | 3.0 | 0.00 | 0.10 | 0.10 | 91 | 1011.8 |
| 20260505214334 | 47 | 348 | 0.0 | 0.0 | 0.00 | 0.10 | 0.10 | 91 | 1011.8 |
| 20260505213831 | 48 | 334 | 1.0 | 1.0 | 0.00 | 0.10 | 0.10 | 91 | 1011.8 |
| 20260505213329 | 48 | 327 | 2.0 | 3.0 | 0.00 | 0.10 | 0.10 | 90 | 1011.8 |
| 20260505212824 | 48 | 357 | 1.0 | 1.0 | 0.00 | 0.10 | 0.10 | 90 | 1011.8 |
| 20260505212322 | 48 | 356 | 1.0 | 1.0 | 0.05 | 0.10 | 0.10 | 89 | 1011.4 |
| 20260505211817 | 48 | 356 | 1.0 | 1.0 | 0.05 | 0.10 | 0.10 | 89 | 1011.8 |
| 20260505211316 | 48 | 335 | 0.0 | 1.0 | 0.00 | 0.09 | 0.09 | 89 | 1011.8 |
| 20260505210812 | 48 | 302 | 1.0 | 2.0 | 0.00 | 0.09 | 0.09 | 86 | 1011.8 |
| 20260505210309 | 49 | 322 | 3.0 | 3.0 | 0.00 | 0.09 | 0.09 | 86 | 1011.8 |
| 20260505205806 | 49 | 317 | 3.0 | 3.0 | 0.00 | 0.09 | 0.09 | 85 | 1011.8 |
| 20260505205305 | 49 | 353 | 1.0 | 1.0 | 0.00 | 0.09 | 0.09 | 84 | 1011.4 |